Find OneWeb SL0228

NORAD ID: 48780 Int'l Des: 2021-045 Owner: ONEWEBN Country: UK Constellation: oneweb operational
LEOCIRCULARPOLARONEWEB_TYPE

实时位置

正在加载3D地球...

关于 OneWeb SL0228

正在加载描述...

即将过境

Passes for default location (London). Set your location on the main map for personalized predictions.

高度历史

Loading altitude history...

两行轨道根数

1 48780U 21045P 26127.63267223 -.00000020 00000-0 -86013-4 0 9994
2 48780 87.8985 267.2621 0001815 95.2497 264.8841 13.15549498238994
Epoch: May 7, 2026 • Age: 7 hours

当前状态

高度 1221.1 km
速度 7.24 km/s
星下点 -47.53°S, 103.44°W
发射日期 May 28, 2021
运行时间 4.9 years
类型 internet

技术详情

分类 Payload
质量 148.00 kg
干质量 140.00 kg
总质量 148.00 kg
长度 1.30 m
直径 1.00 m
跨度 5.00 m
形状 Trapezoid+2 pan
制造商 ONEWUS
平台类型 ARROW
阶段状态 In Orbit
所有者/国家 ONEWEBN/UK

Most Searched